| time (UTC) | temp F | wind direction | speed MPH | gust MPH | rain 1hr in | rain 24hr in | rain mn in | humidity % | barometer mb |
| 20260505204102 | 82 | 70 | 1.0 | 6.0 | 0.00 | 0.00 | 0.00 | 31 | 1006.8 |
| 20260505203558 | 82 | 38 | 2.0 | 8.0 | 0.00 | 0.00 | 0.00 | 31 | 1006.8 |
| 20260505203056 | 84 | 98 | 3.0 | 4.0 | 0.00 | 0.00 | 0.00 | 32 | 1006.9 |
| 20260505202551 | 83 | 12 | 2.0 | 5.0 | 0.00 | 0.00 | 0.00 | 33 | 1006.9 |
| 20260505202047 | 84 | 15 | 2.0 | 4.0 | 0.00 | 0.00 | 0.00 | 33 | 1006.9 |
| 20260505201544 | 84 | 254 | 2.0 | 4.0 | 0.00 | 0.00 | 0.00 | 34 | 1007.0 |
| 20260505201042 | 84 | 293 | 1.0 | 2.0 | 0.00 | 0.00 | 0.00 | 34 | 1007.2 |
| 20260505200540 | 83 | 51 | 1.0 | 6.0 | 0.00 | 0.00 | 0.00 | 33 | 1007.4 |
| 20260505200036 | 83 | 120 | 2.0 | 6.0 | 0.00 | 0.00 | 0.00 | 33 | 1007.4 |
| 20260505195532 | 83 | 56 | 0.0 | 4.0 | 0.00 | 0.00 | 0.00 | 34 | 1007.4 |
| 20260505195030 | 84 | 63 | 1.0 | 5.0 | 0.00 | 0.00 | 0.00 | 34 | 1007.5 |
| 20260505194527 | 83 | 217 | 3.0 | 5.0 | 0.00 | 0.00 | 0.00 | 34 | 1007.4 |
| 20260505194022 | 83 | 306 | 2.0 | 6.0 | 0.00 | 0.00 | 0.00 | 35 | 1007.6 |
| 20260505193520 | 84 | 124 | 3.0 | 4.0 | 0.00 | 0.00 | 0.00 | 36 | 1007.9 |
| 20260505193017 | 83 | 266 | 1.0 | 4.0 | 0.00 | 0.00 | 0.00 | 35 | 1008.0 |
| 20260505192516 | 82 | 113 | 2.0 | 5.0 | 0.00 | 0.00 | 0.00 | 33 | 1007.9 |
| 20260505192013 | 83 | 272 | 1.0 | 4.0 | 0.00 | 0.00 | 0.00 | 35 | 1008.0 |
| 20260505191511 | 83 | 150 | 0.0 | 6.0 | 0.00 | 0.00 | 0.00 | 35 | 1008.0 |
| 20260505191009 | 84 | 174 | 0.0 | 2.0 | 0.00 | 0.00 | 0.00 | 36 | 1008.1 |
| 20260505190509 | 83 | 249 | 2.0 | 4.0 | 0.00 | 0.00 | 0.00 | 36 | 1008.2 |
| 20260505190004 | 82 | 200 | 3.0 | 3.0 | 0.00 | 0.00 | 0.00 | 36 | 1008.3 |
| 20260505185456 | 82 | 210 | 0.0 | 4.0 | 0.00 | 0.00 | 0.00 | 37 | 1008.2 |
| 20260505184952 | 82 | 101 | 3.0 | 5.0 | 0.00 | 0.00 | 0.00 | 37 | 1008.1 |
| 20260505184449 | 82 | 316 | 1.0 | 5.0 | 0.00 | 0.00 | 0.00 | 36 | 1008.6 |
| 20260505183945 | 82 | 146 | 3.0 | 6.0 | 0.00 | 0.00 | 0.00 | 37 | 1008.5 |
| 20260505183443 | 83 | 245 | 2.0 | 3.0 | 0.00 | 0.00 | 0.00 | 38 | 1008.4 |
| 20260505182939 | 82 | 306 | 3.0 | 5.0 | 0.00 | 0.00 | 0.00 | 38 | 1008.6 |
| 20260505182437 | 82 | 186 | 1.0 | 4.0 | 0.00 | 0.00 | 0.00 | 38 | 1008.6 |
| 20260505181932 | 83 | 8 | 2.0 | 5.0 | 0.00 | 0.00 | 0.00 | 36 | 1008.4 |
| 20260505181430 | 82 | 286 | 4.0 | 4.0 | 0.00 | 0.00 | 0.00 | 38 | 1008.5 |
| 20260505180927 | 82 | 189 | 3.0 | 6.0 | 0.00 | 0.00 | 0.00 | 38 | 1008.7 |
| 20260505180423 | 82 | 138 | 2.0 | 4.0 | 0.00 | 0.00 | 0.00 | 38 | 1008.6 |
| 20260505175920 | 81 | 109 | 2.0 | 3.0 | 0.00 | 0.00 | 0.00 | 39 | 1008.8 |
| 20260505175416 | 82 | 280 | 2.0 | 4.0 | 0.00 | 0.00 | 0.00 | 38 | 1008.6 |
| 20260505174913 | 81 | 296 | 1.0 | 5.0 | 0.00 | 0.00 | 0.00 | 40 | 1008.8 |
| 20260505174410 | 82 | 64 | 2.0 | 4.0 | 0.00 | 0.00 | 0.00 | 41 | 1008.8 |
| 20260505173906 | 82 | 142 | 2.0 | 3.0 | 0.00 | 0.00 | 0.00 | 40 | 1008.8 |
| 20260505173403 | 82 | 194 | 3.0 | 6.0 | 0.00 | 0.00 | 0.00 | 41 | 1008.8 |
| 20260505172900 | 81 | 5 | 1.0 | 2.0 | 0.00 | 0.00 | 0.00 | 42 | 1008.7 |
| 20260505172358 | 80 | 128 | 2.0 | 4.0 | 0.00 | 0.00 | 0.00 | 42 | 1008.9 |
| 20260505171857 | 80 | 130 | 4.0 | 4.0 | 0.00 | 0.00 | 0.00 | 42 | 1008.9 |
| 20260505171354 | 80 | 70 | 1.0 | 4.0 | 0.00 | 0.00 | 0.00 | 43 | 1009.1 |
| 20260505170851 | 79 | 213 | 4.0 | 5.0 | 0.00 | 0.00 | 0.00 | 43 | 1009.2 |
| 20260505170348 | 79 | 140 | 2.0 | 4.0 | 0.00 | 0.00 | 0.00 | 41 | 1009.3 |
| 20260505165843 | 79 | 141 | 3.0 | 4.0 | 0.00 | 0.00 | 0.00 | 41 | 1009.3 |
| 20260505165339 | 80 | 144 | 0.0 | 3.0 | 0.00 | 0.00 | 0.00 | 42 | 1009.3 |
| 20260505164835 | 79 | 173 | 0.0 | 3.0 | 0.00 | 0.00 | 0.00 | 43 | 1009.4 |
| 20260505164331 | 79 | 10 | 1.0 | 4.0 | 0.00 | 0.00 | 0.00 | 42 | 1009.5 |
| 20260505163830 | 79 | 37 | 0.0 | 2.0 | 0.00 | 0.00 | 0.00 | 42 | 1009.6 |
| 20260505163328 | 79 | 255 | 2.0 | 4.0 | 0.00 | 0.00 | 0.00 | 42 | 1009.6 |
| 20260505162827 | 78 | 135 | 1.0 | 5.0 | 0.00 | 0.00 | 0.00 | 43 | 1009.7 |
| 20260505162322 | 78 | 269 | 4.0 | 4.0 | 0.00 | 0.00 | 0.00 | 44 | 1009.9 |
| 20260505161819 | 78 | 106 | 0.0 | 5.0 | 0.00 | 0.00 | 0.00 | 43 | 1009.8 |
| 20260505161317 | 77 | 130 | 0.0 | 3.0 | 0.00 | 0.00 | 0.00 | 46 | 1009.7 |
| 20260505160814 | 77 | 343 | 2.0 | 4.0 | 0.00 | 0.00 | 0.00 | 45 | 1010.1 |
| 20260505160312 | 77 | 214 | 2.0 | 3.0 | 0.00 | 0.00 | 0.00 | 45 | 1010.2 |
| 20260505153250 | 76 | 356 | 1.0 | 3.0 | 0.00 | 0.00 | 0.00 | 50 | 1010.1 |
| 20260505152747 | 75 | 180 | 3.0 | 4.0 | 0.00 | 0.00 | 0.00 | 50 | 1010.0 |
| 20260505152244 | 75 | 191 | 0.0 | 3.0 | 0.00 | 0.00 | 0.00 | 50 | 1009.9 |
| 20260505151738 | 74 | 169 | 2.0 | 3.0 | 0.00 | 0.00 | 0.00 | 51 | 1010.1 |
| 20260505151236 | 74 | 92 | 2.0 | 4.0 | 0.00 | 0.00 | 0.00 | 49 | 1010.0 |
| 20260505150732 | 74 | 114 | 0.0 | 3.0 | 0.00 | 0.00 | 0.00 | 50 | 1009.9 |
| 20260505150229 | 75 | 203 | 0.0 | 2.0 | 0.00 | 0.00 | 0.00 | 52 | 1009.9 |
| 20260505140154 | 69 | 169 | 2.0 | 4.0 | 0.00 | 0.00 | 0.00 | 57 | 1009.9 |
| 20260505130118 | 67 | 180 | 2.0 | 3.0 | 0.00 | 0.00 | 0.00 | 62 | 1010.1 |
| 20260505124607 | 66 | 136 | 4.0 | 4.0 | 0.00 | 0.00 | 0.00 | 63 | 1010.0 |
| 20260505124104 | 65 | 106 | 2.0 | 3.0 | 0.00 | 0.00 | 0.00 | 65 | 1010.0 |
| 20260505123600 | 65 | 131 | 3.0 | 4.0 | 0.00 | 0.00 | 0.00 | 66 | 1010.0 |
| 20260505123057 | 64 | 99 | 3.0 | 3.0 | 0.00 | 0.00 | 0.00 | 66 | 1010.1 |
| 20260505122553 | 64 | 149 | 2.0 | 3.0 | 0.00 | 0.00 | 0.00 | 66 | 1009.9 |
| 20260505122051 | 64 | 146 | 3.0 | 5.0 | 0.00 | 0.00 | 0.00 | 65 | 1010.0 |
| 20260505121547 | 65 | 118 | 2.0 | 4.0 | 0.00 | 0.00 | 0.00 | 65 | 1009.9 |
| 20260505121044 | 65 | 123 | 5.0 | 5.0 | 0.00 | 0.00 | 0.00 | 65 | 1010.0 |
| 20260505120540 | 64 | 97 | 0.0 | 4.0 | 0.00 | 0.00 | 0.00 | 66 | 1009.7 |
| 20260505120036 | 64 | 124 | 2.0 | 4.0 | 0.00 | 0.00 | 0.00 | 66 | 1009.9 |
| 20260505115531 | 64 | 80 | 1.0 | 3.0 | 0.00 | 0.00 | 0.00 | 67 | 1010.0 |
| 20260505115029 | 63 | 98 | 1.0 | 2.0 | 0.00 | 0.00 | 0.00 | 67 | 1009.8 |
| 20260505114525 | 63 | 182 | 0.0 | 3.0 | 0.00 | 0.00 | 0.00 | 67 | 1009.7 |
| 20260505114022 | 63 | 106 | 0.0 | 3.0 | 0.00 | 0.00 | 0.00 | 67 | 1009.6 |
| 20260505113518 | 63 | 92 | 2.0 | 3.0 | 0.00 | 0.00 | 0.00 | 69 | 1009.7 |
| 20260505113015 | 63 | 180 | 1.0 | 3.0 | 0.00 | 0.00 | 0.00 | 68 | 1009.6 |
| 20260505112510 | 63 | 118 | 1.0 | 3.0 | 0.00 | 0.00 | 0.00 | 68 | 1009.7 |
| 20260505112009 | 62 | 142 | 3.0 | 3.0 | 0.00 | 0.00 | 0.00 | 69 | 1009.5 |
| 20260505111502 | 62 | 183 | 0.0 | 3.0 | 0.00 | 0.00 | 0.00 | 69 | 1009.5 |
| 20260505110959 | 62 | 165 | 0.0 | 2.0 | 0.00 | 0.00 | 0.00 | 69 | 1009.7 |
| 20260505110455 | 62 | 121 | 1.0 | 2.0 | 0.00 | 0.00 | 0.00 | 70 | 1009.5 |
| 20260505101927 | 62 | 118 | 1.0 | 4.0 | 0.00 | 0.00 | 0.00 | 70 | 1009.5 |
| 20260505101421 | 61 | 136 | 3.0 | 3.0 | 0.00 | 0.00 | 0.00 | 70 | 1009.4 |
| 20260505100917 | 62 | 152 | 1.0 | 4.0 | 0.00 | 0.00 | 0.00 | 70 | 1009.3 |
| 20260505100414 | 62 | 125 | 3.0 | 3.0 | 0.00 | 0.00 | 0.00 | 70 | 1009.1 |
| 20260505095910 | 62 | 154 | 2.0 | 3.0 | 0.00 | 0.00 | 0.00 | 70 | 1009.2 |
| 20260505095407 | 62 | 124 | 2.0 | 3.0 | 0.00 | 0.00 | 0.00 | 70 | 1009.2 |
| 20260505094903 | 62 | 122 | 1.0 | 3.0 | 0.00 | 0.00 | 0.00 | 70 | 1009.0 |
| 20260505094400 | 62 | 26 | 0.0 | 3.0 | 0.00 | 0.00 | 0.00 | 70 | 1009.1 |
| 20260505093856 | 62 | 102 | 1.0 | 3.0 | 0.00 | 0.00 | 0.00 | 69 | 1009.1 |
| 20260505093353 | 62 | 124 | 1.0 | 4.0 | 0.00 | 0.00 | 0.00 | 70 | 1009.2 |
| 20260505092851 | 62 | 125 | 3.0 | 4.0 | 0.00 | 0.00 | 0.00 | 69 | 1009.2 |
| 20260505092348 | 62 | 141 | 1.0 | 4.0 | 0.00 | 0.00 | 0.00 | 69 | 1009.1 |
| 20260505091845 | 62 | 149 | 2.0 | 3.0 | 0.00 | 0.00 | 0.00 | 69 | 1009.1 |
| 20260505091343 | 62 | 107 | 2.0 | 4.0 | 0.00 | 0.00 | 0.00 | 69 | 1009.1 |
| 20260505090841 | 62 | 127 | 2.0 | 3.0 | 0.00 | 0.00 | 0.00 | 68 | 1009.0 |
| 20260505090339 | 63 | 169 | 2.0 | 4.0 | 0.00 | 0.00 | 0.00 | 68 | 1009.0 |
| 20260505085836 | 62 | 133 | 3.0 | 4.0 | 0.00 | 0.00 | 0.00 | 69 | 1009.0 |
| 20260505085334 | 63 | 117 | 2.0 | 4.0 | 0.00 | 0.00 | 0.00 | 68 | 1008.8 |
| 20260505084832 | 63 | 144 | 2.0 | 4.0 | 0.00 | 0.00 | 0.00 | 68 | 1008.8 |
| 20260505084330 | 63 | 104 | 3.0 | 5.0 | 0.00 | 0.00 | 0.00 | 68 | 1008.9 |
| 20260505083826 | 62 | 141 | 2.0 | 2.0 | 0.00 | 0.00 | 0.00 | 69 | 1008.7 |
| 20260505083324 | 63 | 92 | 1.0 | 3.0 | 0.00 | 0.00 | 0.00 | 68 | 1008.8 |
| 20260505082821 | 63 | 115 | 2.0 | 3.0 | 0.00 | 0.00 | 0.00 | 68 | 1008.8 |
| 20260505082317 | 63 | 93 | 1.0 | 4.0 | 0.00 | 0.00 | 0.00 | 68 | 1008.9 |
| 20260505081814 | 63 | 101 | 2.0 | 3.0 | 0.00 | 0.00 | 0.00 | 68 | 1008.8 |
| 20260505081310 | 63 | 183 | 0.0 | 3.0 | 0.00 | 0.00 | 0.00 | 68 | 1009.0 |
| 20260505080807 | 63 | 111 | 2.0 | 3.0 | 0.00 | 0.00 | 0.00 | 68 | 1008.8 |
| 20260505080303 | 63 | 142 | 3.0 | 6.0 | 0.00 | 0.00 | 0.00 | 68 | 1008.7 |
| 20260505075758 | 63 | 124 | 0.0 | 3.0 | 0.00 | 0.00 | 0.00 | 68 | 1008.9 |
| 20260505075256 | 63 | 142 | 0.0 | 3.0 | 0.00 | 0.00 | 0.00 | 68 | 1009.0 |
| 20260505074753 | 63 | 151 | 1.0 | 4.0 | 0.00 | 0.00 | 0.00 | 68 | 1008.7 |
| 20260505074250 | 63 | 122 | 2.0 | 3.0 | 0.00 | 0.00 | 0.00 | 69 | 1008.8 |
| 20260505073748 | 63 | 134 | 2.0 | 2.0 | 0.00 | 0.00 | 0.00 | 69 | 1008.6 |
| 20260505073245 | 63 | 176 | 2.0 | 6.0 | 0.00 | 0.00 | 0.00 | 68 | 1008.7 |
| 20260505072742 | 63 | 20 | 0.0 | 3.0 | 0.00 | 0.00 | 0.00 | 69 | 1008.9 |
| 20260505072238 | 63 | 89 | 1.0 | 2.0 | 0.00 | 0.00 | 0.00 | 69 | 1008.7 |
| 20260505071734 | 63 | 139 | 1.0 | 3.0 | 0.00 | 0.00 | 0.00 | 69 | 1008.7 |
| 20260505071231 | 63 | 161 | 0.0 | 3.0 | 0.00 | 0.00 | 0.00 | 68 | 1008.5 |
| 20260505070728 | 63 | 92 | 1.0 | 2.0 | 0.00 | 0.00 | 0.00 | 68 | 1008.5 |
| 20260505070224 | 63 | 350 | 0.0 | 3.0 | 0.00 | 0.00 | 0.00 | 68 | 1008.7 |
| 20260505065720 | 63 | 103 | 3.0 | 3.0 | 0.00 | 0.00 | 0.00 | 68 | 1008.5 |
| 20260505065217 | 63 | 123 | 2.0 | 3.0 | 0.00 | 0.00 | 0.00 | 68 | 1008.5 |
| 20260505064714 | 63 | 103 | 2.0 | 3.0 | 0.00 | 0.00 | 0.00 | 68 | 1008.6 |
| 20260505064212 | 63 | 188 | 0.0 | 3.0 | 0.00 | 0.00 | 0.00 | 67 | 1008.6 |
| 20260505063709 | 64 | 117 | 2.0 | 2.0 | 0.00 | 0.00 | 0.00 | 67 | 1008.4 |
| 20260505063205 | 64 | 116 | 1.0 | 3.0 | 0.00 | 0.00 | 0.00 | 67 | 1008.7 |
| 20260505062701 | 64 | 132 | 0.0 | 3.0 | 0.00 | 0.00 | 0.00 | 67 | 1008.4 |
| 20260505062200 | 64 | 113 | 2.0 | 3.0 | 0.00 | 0.00 | 0.00 | 66 | 1008.5 |
| 20260505061656 | 64 | 86 | 3.0 | 4.0 | 0.00 | 0.00 | 0.00 | 66 | 1008.4 |
| 20260505061154 | 64 | 114 | 0.0 | 4.0 | 0.00 | 0.00 | 0.00 | 66 | 1008.6 |
| 20260505060651 | 64 | 76 | 1.0 | 5.0 | 0.00 | 0.00 | 0.00 | 66 | 1008.5 |
| 20260505060148 | 64 | 107 | 2.0 | 3.0 | 0.00 | 0.00 | 0.00 | 66 | 1008.6 |
| 20260505055643 | 64 | 143 | 2.0 | 3.0 | 0.00 | 0.00 | 0.00 | 65 | 1008.6 |
| 20260505055140 | 64 | 58 | 1.0 | 3.0 | 0.00 | 0.00 | 0.00 | 65 | 1008.5 |
| 20260505054638 | 64 | 131 | 3.0 | 4.0 | 0.00 | 0.00 | 0.00 | 64 | 1008.6 |
| 20260505054136 | 64 | 64 | 0.0 | 4.0 | 0.00 | 0.00 | 0.00 | 64 | 1008.8 |
| 20260505053633 | 63 | 142 | 0.0 | 3.0 | 0.00 | 0.00 | 0.00 | 64 | 1008.8 |
| 20260505053129 | 63 | 185 | 1.0 | 3.0 | 0.00 | 0.00 | 0.00 | 64 | 1008.7 |
| 20260505052626 | 63 | 153 | 3.0 | 3.0 | 0.00 | 0.00 | 0.00 | 64 | 1008.5 |
| 20260505052124 | 63 | 89 | 0.0 | 2.0 | 0.00 | 0.00 | 0.00 | 63 | 1008.6 |
| 20260505051621 | 63 | 147 | 0.0 | 3.0 | 0.00 | 0.00 | 0.00 | 62 | 1008.5 |
| 20260505051119 | 62 | 118 | 2.0 | 3.0 | 0.00 | 0.00 | 0.00 | 63 | 1008.5 |
| 20260505050616 | 62 | 133 | 2.0 | 2.0 | 0.00 | 0.00 | 0.00 | 62 | 1008.6 |
| 20260505050114 | 62 | 147 | 0.0 | 3.0 | 0.00 | 0.00 | 0.00 | 62 | 1008.5 |
| 20260505041544 | 62 | 83 | 0.0 | 2.0 | 0.00 | 0.00 | 0.00 | 62 | 1008.5 |
| 20260505041041 | 62 | 87 | 1.0 | 2.0 | 0.00 | 0.00 | 0.00 | 63 | 1008.4 |
| 20260505040539 | 62 | 137 | 0.0 | 2.0 | 0.00 | 0.00 | 0.00 | 61 | 1008.3 |
| 20260505040036 | 62 | 165 | 1.0 | 2.0 | 0.00 | 0.00 | 0.00 | 62 | 1008.4 |
| 20260505035531 | 62 | 113 | 2.0 | 2.0 | 0.00 | 0.00 | 0.00 | 62 | 1008.3 |
| 20260505035028 | 61 | 160 | 2.0 | 2.0 | 0.00 | 0.00 | 0.00 | 63 | 1008.1 |
| 20260505034525 | 61 | 150 | 1.0 | 2.0 | 0.00 | 0.00 | 0.00 | 65 | 1008.2 |
| 20260505034022 | 61 | 132 | 1.0 | 2.0 | 0.00 | 0.00 | 0.00 | 64 | 1008.4 |
| 20260505033519 | 61 | 110 | 0.0 | 2.0 | 0.00 | 0.00 | 0.00 | 66 | 1008.2 |
| 20260505033017 | 61 | 86 | 1.0 | 3.0 | 0.00 | 0.00 | 0.00 | 67 | 1008.3 |
| 20260505032514 | 61 | 89 | 0.0 | 2.0 | 0.00 | 0.00 | 0.00 | 67 | 1008.3 |
| 20260505032011 | 61 | 68 | 0.0 | 2.0 | 0.00 | 0.00 | 0.00 | 66 | 1008.3 |
| 20260505031508 | 60 | 107 | 0.0 | 2.0 | 0.00 | 0.00 | 0.00 | 66 | 1008.2 |
| 20260505031004 | 60 | 57 | 1.0 | 2.0 | 0.00 | 0.00 | 0.00 | 66 | 1008.2 |
| 20260505030501 | 60 | 86 | 2.0 | 2.0 | 0.00 | 0.00 | 0.00 | 66 | 1008.4 |
| 20260505025956 | 61 | 99 | 1.0 | 2.0 | 0.00 | 0.00 | 0.00 | 65 | 1008.4 |
| 20260505025453 | 61 | 216 | 0.0 | 2.0 | 0.00 | 0.00 | 0.00 | 66 | 1008.3 |
| 20260505024952 | 61 | 82 | 0.0 | 2.0 | 0.00 | 0.00 | 0.00 | 65 | 1008.3 |
| 20260505024449 | 61 | 118 | 2.0 | 2.0 | 0.00 | 0.00 | 0.00 | 65 | 1008.4 |
| 20260505023946 | 61 | 193 | 0.0 | 2.0 | 0.00 | 0.00 | 0.00 | 64 | 1008.5 |
| 20260505023443 | 61 | 130 | 1.0 | 1.0 | 0.00 | 0.00 | 0.00 | 65 | 1008.4 |
| 20260505022940 | 61 | 89 | 0.0 | 1.0 | 0.00 | 0.00 | 0.00 | 65 | 1008.4 |
| 20260505022438 | 61 | 89 | 0.0 | 2.0 | 0.00 | 0.00 | 0.00 | 65 | 1008.3 |
| 20260505021935 | 61 | 180 | 0.0 | 1.0 | 0.00 | 0.00 | 0.00 | 64 | 1008.3 |
| 20260505021431 | 61 | 124 | 0.0 | 0.0 | 0.00 | 0.00 | 0.00 | 67 | 1008.1 |
| 20260505020927 | 61 | 89 | 0.0 | 1.0 | 0.00 | 0.00 | 0.00 | 66 | 1008.1 |
| 20260505020422 | 62 | 114 | 0.0 | 1.0 | 0.00 | 0.00 | 0.00 | 65 | 1008.0 |
| 20260505015920 | 62 | 135 | 0.0 | 2.0 | 0.00 | 0.00 | 0.00 | 64 | 1008.3 |
| 20260505015417 | 62 | 178 | 2.0 | 2.0 | 0.00 | 0.00 | 0.00 | 65 | 1008.3 |
| 20260505014914 | 62 | 134 | 1.0 | 1.0 | 0.00 | 0.00 | 0.00 | 65 | 1008.2 |
| 20260505014411 | 62 | 88 | 0.0 | 1.0 | 0.00 | 0.00 | 0.00 | 64 | 1008.2 |
| 20260505013908 | 63 | 89 | 0.0 | 1.0 | 0.00 | 0.00 | 0.00 | 63 | 1008.3 |
| 20260505013404 | 62 | 104 | 0.0 | 0.0 | 0.00 | 0.00 | 0.00 | 62 | 1008.3 |
| 20260505012903 | 62 | 142 | 0.0 | 0.0 | 0.00 | 0.00 | 0.00 | 62 | 1008.2 |
| 20260505012400 | 63 | 142 | 0.0 | 0.0 | 0.00 | 0.00 | 0.00 | 61 | 1008.2 |
| 20260505011856 | 63 | 142 | 0.0 | 0.0 | 0.00 | 0.00 | 0.00 | 60 | 1008.1 |
| 20260505011353 | 63 | 93 | 1.0 | 1.0 | 0.00 | 0.00 | 0.00 | 60 | 1008.1 |
| 20260505010849 | 64 | 84 | 1.0 | 1.0 | 0.00 | 0.00 | 0.00 | 59 | 1008.0 |
| 20260505010345 | 64 | 89 | 0.0 | 0.0 | 0.00 | 0.00 | 0.00 | 57 | 1008.1 |
| 20260505005842 | 64 | 49 | 0.0 | 0.0 | 0.00 | 0.00 | 0.00 | 57 | 1007.8 |
| 20260505005339 | 65 | 103 | 0.0 | 0.0 | 0.00 | 0.00 | 0.00 | 56 | 1007.8 |
| 20260505004836 | 65 | 66 | 0.0 | 0.0 | 0.00 | 0.00 | 0.00 | 55 | 1008.0 |
| 20260505004332 | 65 | 124 | 0.0 | 1.0 | 0.00 | 0.00 | 0.00 | 54 | 1007.8 |
| 20260505003830 | 65 | 135 | 0.0 | 2.0 | 0.00 | 0.00 | 0.00 | 54 | 1007.7 |
| 20260505003327 | 66 | 47 | 1.0 | 1.0 | 0.00 | 0.00 | 0.00 | 52 | 1007.5 |
| 20260505002823 | 66 | 76 | 0.0 | 0.0 | 0.00 | 0.00 | 0.00 | 51 | 1007.8 |
| 20260505002320 | 66 | 53 | 0.0 | 1.0 | 0.00 | 0.00 | 0.00 | 50 | 1007.8 |
| 20260505001818 | 66 | 119 | 2.0 | 2.0 | 0.00 | 0.00 | 0.00 | 50 | 1007.7 |
| 20260505001315 | 66 | 141 | 0.0 | 1.0 | 0.00 | 0.00 | 0.00 | 49 | 1007.7 |
| 20260505000812 | 67 | 326 | 0.0 | 0.0 | 0.00 | 0.00 | 0.00 | 49 | 1007.3 |
| 20260505000310 | 67 | 80 | 0.0 | 2.0 | 0.00 | 0.00 | 0.00 | 48 | 1007.8 |
| 20260504235806 | 68 | 193 | 0.0 | 0.0 | 0.00 | 0.00 | 0.00 | 47 | 1007.5 |
| 20260504235304 | 68 | 193 | 0.0 | 0.0 | 0.00 | 0.00 | 0.00 | 45 | 1007.4 |
| 20260504234800 | 69 | 168 | 0.0 | 0.0 | 0.00 | 0.00 | 0.00 | 45 | 1007.5 |
| 20260504234258 | 69 | 168 | 0.0 | 0.0 | 0.00 | 0.00 | 0.00 | 44 | 1007.5 |
| 20260504233754 | 70 | 69 | 0.0 | 1.0 | 0.00 | 0.00 | 0.00 | 43 | 1007.3 |
| 20260504233249 | 70 | 49 | 0.0 | 0.0 | 0.00 | 0.00 | 0.00 | 44 | 1007.4 |
| 20260504232746 | 71 | 89 | 0.0 | 0.0 | 0.00 | 0.00 | 0.00 | 41 | 1007.4 |
| 20260504232243 | 71 | 76 | 0.0 | 0.0 | 0.00 | 0.00 | 0.00 | 41 | 1007.3 |
| 20260504231740 | 72 | 142 | 0.0 | 1.0 | 0.00 | 0.00 | 0.00 | 41 | 1007.2 |
| 20260504231237 | 72 | 191 | 0.0 | 3.0 | 0.00 | 0.00 | 0.00 | 39 | 1007.2 |
| 20260504230732 | 72 | 158 | 1.0 | 1.0 | 0.00 | 0.00 | 0.00 | 39 | 1007.3 |
| 20260504230232 | 73 | 327 | 0.0 | 2.0 | 0.00 | 0.00 | 0.00 | 40 | 1007.1 |
| 20260504225730 | 73 | 95 | 0.0 | 0.0 | 0.00 | 0.00 | 0.00 | 38 | 1007.4 |
| 20260504225226 | 73 | 117 | 0.0 | 1.0 | 0.00 | 0.00 | 0.00 | 36 | 1007.3 |
| 20260504224723 | 73 | 117 | 0.0 | 3.0 | 0.00 | 0.00 | 0.00 | 36 | 1007.4 |
| 20260504224220 | 74 | 240 | 0.0 | 3.0 | 0.00 | 0.00 | 0.00 | 36 | 1007.3 |
| 20260504223716 | 73 | 207 | 2.0 | 3.0 | 0.00 | 0.00 | 0.00 | 35 | 1007.2 |
| 20260504223212 | 74 | 102 | 0.0 | 2.0 | 0.00 | 0.00 | 0.00 | 35 | 1007.4 |
| 20260504222709 | 74 | 142 | 0.0 | 1.0 | 0.00 | 0.00 | 0.00 | 35 | 1007.3 |
| 20260504222206 | 74 | 89 | 0.0 | 3.0 | 0.00 | 0.00 | 0.00 | 35 | 1007.4 |
| 20260504221704 | 74 | 343 | 0.0 | 3.0 | 0.00 | 0.00 | 0.00 | 34 | 1007.3 |
| 20260504221201 | 74 | 114 | 0.0 | 1.0 | 0.00 | 0.00 | 0.00 | 35 | 1007.5 |
| 20260504220657 | 74 | 290 | 0.0 | 1.0 | 0.00 | 0.00 | 0.00 | 35 | 1007.5 |
| 20260504220155 | 74 | 129 | 0.0 | 2.0 | 0.00 | 0.00 | 0.00 | 34 | 1007.4 |
| 20260504215651 | 75 | 239 | 1.0 | 3.0 | 0.00 | 0.00 | 0.00 | 33 | 1007.4 |
| 20260504215148 | 75 | 326 | 0.0 | 2.0 | 0.00 | 0.00 | 0.00 | 34 | 1007.4 |
| 20260504214644 | 75 | 126 | 0.0 | 2.0 | 0.00 | 0.00 | 0.00 | 33 | 1007.6 |
| 20260504214140 | 75 | 111 | 2.0 | 6.0 | 0.00 | 0.00 | 0.00 | 33 | 1007.6 |
| 20260504213637 | 75 | 55 | 2.0 | 3.0 | 0.00 | 0.00 | 0.00 | 33 | 1007.7 |
| 20260504213134 | 76 | 123 | 0.0 | 2.0 | 0.00 | 0.00 | 0.00 | 37 | 1007.5 |
| 20260504212630 | 75 | 136 | 1.0 | 3.0 | 0.00 | 0.00 | 0.00 | 34 | 1007.3 |
| 20260504212127 | 74 | 240 | 3.0 | 3.0 | 0.00 | 0.00 | 0.00 | 35 | 1007.7 |
| 20260504211625 | 75 | 23 | 2.0 | 3.0 | 0.00 | 0.00 | 0.00 | 34 | 1007.7 |
| 20260504211121 | 74 | 89 | 0.0 | 2.0 | 0.00 | 0.00 | 0.00 | 36 | 1007.4 |
| 20260504210619 | 75 | 195 | 0.0 | 2.0 | 0.00 | 0.00 | 0.00 | 34 | 1007.6 |
| 20260504210115 | 75 | 244 | 1.0 | 3.0 | 0.00 | 0.00 | 0.00 | 32 | 1007.7 |
| 20260504205613 | 75 | 117 | 0.0 | 1.0 | 0.00 | 0.00 | 0.00 | 33 | 1007.7 |
| 20260504205110 | 75 | 224 | 0.0 | 2.0 | 0.00 | 0.00 | 0.00 | 32 | 1007.6 |
| 20260504204609 | 75 | 64 | 0.0 | 6.0 | 0.00 | 0.00 | 0.00 | 32 | 1007.3 |